Location: Del Amo
(33.8464°N, 118.2104°W)
Time: 20:06:15
(UTC+00:00)

S-56A Canister/Altair - Pass Details

Date: 14 September 2024
Orbit: 636 x 2487 km, 38.9° (Epoch: 14 October)

Event Time Altitude Azimuth Distance (km) Brightness Sun altitude
Rises 06:27:04 0° 289° (WNW) 4,061 11.7 -48.3°
Reaches altitude 10° 06:29:28 10° 290° (WNW) 3,302 11.1 -48.6°
Enters shadow 06:32:26 27° 294° (WNW) 2,460 10.2 -48.9°
Maximum altitude 06:38:08 80° 18° (NNE) 1,746 - -49.4°
Drops below altitude 10° 06:51:11 10° 106° (ESE) 4,802 - -50.6°
Sets 06:55:24 0° 107° (ESE) 5,974 - -50.9°
